TimePST,TemperatureF,Dew PointF,Humidity,Sea Level PressureIn,VisibilityMPH,Wind Direction,Wind SpeedMPH,Gust SpeedMPH,PrecipitationIn,Events,Conditions,WindDirDegrees,DateUTC
12:00 AM,42.8,40.3,91,30.03,-9999.0,ESE,12.7,-,N/A,,Unknown,120,2013-01-24 08:00:00
1:00 AM,42.4,39.9,91,30.05,-9999.0,SE,13.8,-,N/A,,Unknown,140,2013-01-24 09:00:00
2:00 AM,42.4,39.6,90,30.05,-9999.0,ESE,19.6,-,N/A,,Unknown,120,2013-01-24 10:00:00
3:00 AM,42.3,39.4,90,30.04,-9999.0,SE,23.0,-,N/A,,Unknown,130,2013-01-24 11:00:00
4:00 AM,42,39,84,30.03,,ESE,25.3,,,,,120,2013-01-24 12:00:00
4:00 AM,41.9,38.8,89,30.03,-9999.0,ESE,25.3,-,N/A,,Unknown,120,2013-01-24 12:00:00
5:00 AM,41.0,38.5,91,30.01,-9999.0,SE,28.8,-,N/A,,Unknown,130,2013-01-24 13:00:00
6:00 AM,41.7,38.5,88,29.99,-9999.0,ESE,29.9,-,N/A,,Unknown,120,2013-01-24 14:00:00
7:00 AM,41.9,37.9,86,29.96,-9999.0,ESE,29.9,35.7,N/A,,Unknown,120,2013-01-24 15:00:00
8:00 AM,42.3,37.2,82,29.91,-9999.0,ESE,35.7,42.6,N/A,,Unknown,120,2013-01-24 16:00:00
9:00 AM,42.8,36.9,80,29.91,-9999.0,ESE,39.1,47.2,N/A,,Unknown,120,2013-01-24 17:00:00
10:00 AM,43,37,73,29.86,,ESE,42.6,,,,,120,2013-01-24 18:00:00
10:00 AM,43.2,37.2,80,29.86,-9999.0,ESE,42.6,51.8,N/A,,Unknown,120,2013-01-24 18:00:00
11:00 AM,43.0,38.7,85,29.83,-9999.0,ESE,46.0,55.2,N/A,,Unknown,120,2013-01-24 19:00:00
12:00 PM,42.4,37.8,83,29.80,-9999.0,ESE,49.5,58.7,N/A,,Unknown,120,2013-01-24 20:00:00
1:00 PM,42.1,39.4,90,29.76,-9999.0,ESE,47.2,58.7,N/A,,Unknown,120,2013-01-24 21:00:00
2:00 PM,41.7,39.4,91,29.71,-9999.0,ESE,52.9,64.4,N/A,,Unknown,120,2013-01-24 22:00:00
3:00 PM,41.9,38.3,87,29.70,-9999.0,ESE,51.8,63.3,N/A,,Unknown,120,2013-01-24 23:00:00
4:00 PM,41,39,89,29.68,,ESE,52.9,,,,,120,2013-01-25 00:00:00
4:00 PM,41.0,38.8,92,29.68,-9999.0,ESE,52.9,66.7,N/A,,Unknown,120,2013-01-25 00:00:00
5:00 PM,42.4,37.0,81,29.70,-9999.0,ESE,51.8,59.8,N/A,,Unknown,120,2013-01-25 01:00:00
6:00 PM,42.3,37.0,82,29.74,-9999.0,SE,44.9,59.8,N/A,,Unknown,130,2013-01-25 02:00:00
7:00 PM,42.6,37.0,81,29.74,-9999.0,SE,43.7,55.2,N/A,,Unknown,130,2013-01-25 03:00:00
8:00 PM,42.8,36.5,78,29.76,-9999.0,ESE,39.1,47.2,N/A,,Unknown,120,2013-01-25 04:00:00
9:00 PM,43.2,37.2,80,29.78,-9999.0,ESE,35.7,42.6,N/A,,Unknown,120,2013-01-25 05:00:00
10:00 PM,43,38,75,29.81,,SE,26.5,,,,,130,2013-01-25 06:00:00
10:00 PM,43.2,37.8,81,29.81,-9999.0,SE,26.5,33.4,N/A,,Unknown,130,2013-01-25 06:00:00
11:00 PM,43.0,38.3,84,29.82,-9999.0,SE,28.8,35.7,N/A,,Unknown,130,2013-01-25 07:00:00